Your browser is no longer supported. Please, upgrade your browser.
Filter
Ticker Owner Relationship Date Transaction Cost #Shares Value ($) #Shares Total SEC Form 4
GABCSnowden Raymond WardDirectorNov 15Buy33.741013,40830,726Nov 19 03:35 PM
GABCSEGER THOMAS WDirectorNov 15Buy33.74762,564341,259Nov 19 03:29 PM
GABCRamsey Chris ADirectorNov 15Buy33.74762,56420,785Nov 19 03:24 PM
EEFTCaponecchi Kevin JCEO, epay and APAC DivisionNov 15Option Exercise50.5433,5651,696,290100,064Nov 19 03:24 PM
EEFTCaponecchi Kevin JCEO, epay and APAC DivisionNov 18Option Exercise45.938,565393,39075,064Nov 19 03:24 PM
EEFTCaponecchi Kevin JCEO, epay and APAC DivisionNov 18Sale154.008,5651,319,01066,499Nov 19 03:24 PM
EEFTCaponecchi Kevin JCEO, epay and APAC DivisionNov 15Sale153.4333,5655,149,87866,499Nov 19 03:24 PM
NGLKRIMBILL H MICHAELChief Executive OfficerNov 18Buy9.9530,000298,5001,193,672Nov 19 03:18 PM
NGLKRIMBILL H MICHAELChief Executive OfficerNov 18Buy9.8970,000692,391313,000Nov 19 03:18 PM
GABCKLEM U BUTCHDirectorNov 15Buy33.74762,564179,939Nov 19 03:18 PM
TISIWood Michael RSr. Vice President, HSENov 15Option Exercise0.008390839Nov 19 03:15 PM
GABCKELLY JASON MDirectorNov 15Buy33.74501,6871,597Nov 19 03:14 PM
TISISides Sherri ASr VP, Chief HR OfficerNov 15Option Exercise0.001,10201,102Nov 19 03:11 PM
BURGPruitt Michael DCEO, ChairmanNov 17Buy0.641651064,858Nov 19 03:11 PM
BURGPruitt Michael DCEO, ChairmanNov 19Buy0.712,0001,41032,462Nov 19 03:11 PM
PEGChernick Rose MVice President and ControllerNov 15Sale60.6520012,13028,744Nov 19 03:10 PM
TISIRoscoe Grant DPresident, OperationsNov 15Option Exercise0.002,10002,100Nov 19 03:09 PM
TISIOtt Jeffrey LPresident, TEAM PSL & QuestNov 15Option Exercise0.006,8730343,983Nov 19 03:06 PM
JAGHoward Robert WilliamEVP, CFONov 15Sale7.25140,0001,014,7202,150,445Nov 19 03:05 PM
JAGHoward Robert WilliamEVP, CFONov 18Sale7.08140,000990,6402,010,445Nov 19 03:05 PM
GABCBawel Zachary WDirectorNov 15Buy33.74258444,683Nov 19 03:04 PM
TISIMcCloskey James PSr VP, CommercialNov 15Option Exercise0.001,05001,050Nov 19 03:01 PM
TISIGatti AmerinoCEONov 15Option Exercise0.003,367055,692Nov 19 02:58 PM
TISIBouchard Andre CExec VP & Chief Legal OfficerNov 15Option Exercise0.006,153040,958Nov 19 02:53 PM
FELEKenney Donald PVP & PresidentNov 15Option Exercise14.953,09246,21025,369Nov 19 02:53 PM
OESXPotts Michael JDirectorNov 14Sale3.1956,625180,448625,797Nov 19 02:51 PM
OESXPotts Michael JDirectorNov 18Sale3.5485,170301,655540,627Nov 19 02:51 PM
VERIGRAZIADIO G LOUIS IIIDirectorNov 15Buy2.7741,008113,506321,499Nov 19 02:47 PM
LONEELLIS HENRYDirectorNov 19Buy2.0410,00020,40951,200Nov 19 02:42 PM
MACZecchini Christopher JChief Accounting OfficerNov 18Sale27.701,50041,5535,672Nov 19 01:49 PM
ONTORhine Bruce CDirectorNov 15Sale34.6625,000866,500667,117Nov 19 01:39 PM
NEOGHERBERT JAMES LDirectorNov 15Sale63.8120,0001,276,132207,311Nov 19 01:35 PM
MCHPSIMONCIC RICHARD JSenior VP, Analog/Intrfce BUNov 15Option Exercise94.606,268592,95355,597Nov 19 01:33 PM
FFINEdwards Murray HamiltonDirectorNov 19Buy34.2030010,260113,454Nov 19 01:33 PM
MCHPSANGHI STEVEPresident, CEO, ChairmanNov 15Option Exercise94.6040,0893,792,4194,821,656Nov 19 01:32 PM
MCHPMOORTHY GANESHCOONov 15Option Exercise94.6017,0811,615,863299,291Nov 19 01:32 PM
MCHPLITTLE MITCHELL RSenior VP, WW Client EngagemntNov 15Option Exercise94.607,522711,58115,264Nov 19 01:31 PM
MCHPDREHOBL STEPHEN VSenior VP, MCU8/MCU16 BUNov 15Option Exercise94.608,561809,87125,134Nov 19 01:31 PM
MMLPTAUSCHER RANDALLExecutive Vice President/COONov 19Buy4.676392,98473,673Nov 19 01:30 PM
MCHPBjornholt James EricSenior VP and CFONov 15Option Exercise94.605,441514,71929,965Nov 19 01:30 PM
MMLPShoup Scot ASenior VP OperationsNov 19Buy4.679644810,922Nov 19 01:30 PM
MMLPMARTIN RUBEN SPresident and CEONov 19Buy4.67186871332,450Nov 19 01:30 PM
MMLPBOOTH CHRIS HVP/General Counsel/SecretaryNov 19Buy4.67125825,828Nov 19 01:29 PM
MMLPBONDURANT ROBERT DExecutive VP and CFONov 19Buy4.671,2175,68882,728Nov 19 01:29 PM
CUIONEIL JAMES FChief Executive OfficerNov 19Buy1.0850,00054,000430,331Nov 19 01:26 PM
CIENMcFeely ScottSVP, Networking PlatformsNov 15Sale37.731,00037,73078,874Nov 19 01:26 PM
BGSimmons Jerry Matthews JRController, Principal Actg OffNov 19Sale54.651,78697,60511,323Nov 19 01:24 PM
CIENRothenstein David MSr. VP, General CounselNov 15Sale37.732,00075,460265,633Nov 19 01:22 PM
CIENALEXANDER STEPHEN BSVP, Chief Technology OfficerNov 15Sale37.732,50094,32593,042Nov 19 01:16 PM
CTVACollins James C. Jr.Chief Executive OfficerNov 19Buy25.505,000127,500416,641Nov 19 01:13 PM
NATIKODOSKY JEFFREY LDirectorNov 18Sale43.0450021,520338,410Nov 19 12:56 PM
NATIKODOSKY JEFFREY LDirectorNov 18Sale43.041,50064,560334,373Nov 19 12:56 PM
SYKScannell Timothy JPresident and COONov 15Option Exercise53.095,284280,528160,216Nov 19 12:56 PM
SYKScannell Timothy JPresident and COONov 18Sale206.284,666962,510155,550Nov 19 12:56 PM
SYBTDishman WilliamExecutive Vice PresidentNov 19Sale40.401,90677,00217,504Nov 19 12:51 PM
HURNMCCARTNEY JOHNDirectorNov 15Sale66.121,00066,12063,241Nov 19 12:38 PM
SLNGBroussard Benjamin J.DirectorNov 15Buy4.551,0004,5501,000Nov 19 12:35 PM
SLNGJCH Crenshaw Holdings, LLCDirectorNov 18Buy4.8811,00053,67511,000Nov 19 12:35 PM
IBCPSHUSTER ROBERT NExecutive Vice PresidentNov 18Sale22.398,264185,02249,924Nov 19 12:31 PM
MORNMansueto Joseph DExecutive ChairmanNov 15Sale155.558,8591,378,04421,215,045Nov 19 12:10 PM
MORNMansueto Joseph DExecutive ChairmanNov 18Sale155.288,2961,288,20321,206,749Nov 19 12:10 PM
BKHEMERY DAVID RExecutive ChairmanNov 19Sale75.967,500569,666137,806Nov 19 12:05 PM
INODAtkinson David BDirectorNov 15Buy1.2512,00015,00027,000Nov 19 12:05 PM
SKXGREENBERG JEFFREYDirectorNov 18Sale41.0016,152662,2320Nov 19 12:01 PM
LLYLILLY ENDOWMENT INC10% OwnerNov 18Sale114.0010,5981,208,172116,210,304Nov 19 12:00 PM
LIQTVERNON MARKDirectorNov 18Buy4.6620,00093,200188,075Nov 19 12:00 PM
PPLSorgi VincentPresident and COONov 18Option Exercise25.1313,696344,18030,976Nov 19 11:53 AM
PPLSorgi VincentPresident and COONov 18Sale34.0413,696466,26717,280Nov 19 11:53 AM
NVRMartchek Jeffrey DPresident of Homebuilding OpsNov 15Option Exercise1094.22529578,8424,452Nov 19 11:43 AM
NVRMartchek Jeffrey DPresident of Homebuilding OpsNov 15Sale3668.345291,940,5523,923Nov 19 11:43 AM
CNOSchwartz Joel H.President, Colonial PennNov 18Sale18.211,71731,26723,603Nov 19 11:37 AM
ASRVWISE ROBERT LDirectorNov 15Buy4.17166692159,570Nov 19 11:13 AM
SLNGReddinger James CalvinChief Executive OfficerNov 15Buy4.385002,190500Nov 19 11:12 AM
SLNGReddinger James CalvinChief Executive OfficerNov 18Buy4.774502,147950Nov 19 11:12 AM
SNXMURAI KEVIN MDirectorNov 15Sale120.961,046126,52628,427Nov 19 11:08 AM
GRXCONN JAMES PDirectorNov 15Sale10.8922,856248,8101,000Nov 19 11:08 AM
TPLHORIZON KINETICS ASSET MANAGEM10% OwnerNov 18Buy665.052516,626314,234Nov 19 11:07 AM
SNXMURAI KEVIN MDirectorNov 15Sale120.0173488,08529,473Nov 19 11:07 AM
SNXMURAI KEVIN MDirectorNov 15Option Exercise26.982,50067,45030,927Nov 19 11:04 AM
SNXMURAI KEVIN MDirectorNov 15Sale119.1072085,75530,207Nov 19 11:04 AM
SWXDaily Paul MExecutive OfficerNov 18Buy76.851259,6061,031Nov 19 10:52 AM
RKDAMurray Lilian ShackelfordDirectorNov 18Buy4.255,00021,2508,524Nov 19 10:50 AM
EXPOJOHNSTON PAUL RDirectorNov 15Option Exercise12.517,00087,55395,507Nov 19 10:50 AM
EXPOJOHNSTON PAUL RDirectorNov 15Sale63.137,000441,89888,507Nov 19 10:50 AM
RJFJULIEN JEFFREY PCFO, Executive VP - FinNov 18Option Exercise0.001,000040,592Nov 19 10:44 AM
IZEAMurphy Edward HPresident and CEOOct 31Option Exercise0.009,0260246,537Nov 19 10:35 AM
TSBKPARKER JON CDirectorNov 18Sale28.5510,000285,50038,952Nov 19 10:28 AM
AVBNAUGHTON TIMOTHY JChairman & CEONov 15Option Exercise126.7826,6343,376,659173,964Nov 19 10:10 AM
AVBNAUGHTON TIMOTHY JChairman & CEONov 15Sale213.6026,6345,689,064147,330Nov 19 10:10 AM
PBCTTengel Jeffrey JPresidentNov 18Option Exercise14.1790,6891,285,259232,556Nov 19 09:45 AM
PBCTTengel Jeffrey JPresidentNov 18Sale16.3090,6891,478,231141,867Nov 19 09:45 AM
PTVCAEdgecliffe-Johnson Jeremy DaviChief Executive OfficerNov 18Buy16.103,10449,97484,951Nov 19 09:37 AM
BRWEBER ALAN JDirectorNov 15Option Exercise21.9415,100331,29466,350Nov 19 09:28 AM
BRWEBER ALAN JDirectorNov 15Sale119.092,786331,77263,564Nov 19 09:28 AM
KEXO'Neil Christian G.President-Kirby Inland MarineNov 15Option Exercise70.656,174436,19327,761Nov 19 09:21 AM
KEXO'Neil Christian G.President-Kirby Inland MarineNov 15Sale83.326,899574,79220,862Nov 19 09:21 AM
TURNWolfe Daniel BPresidentNov 18Buy2.172,5005,425276,000Nov 19 09:20 AM
SSPKnutson Lisa AEVP and CFONov 15Sale14.2725,000356,85014,794Nov 19 09:09 AM
TUPFENNE STEIN OVEGroup PresidentNov 15Buy8.7411,555100,95029,201Nov 19 09:06 AM
EPCSEESER JENNIFERChief Acccounting OfficerNov 15Option Exercise0.0054702,456Nov 19 08:58 AM
EPCLITTLE ROD RChief Executive OfficerNov 15Option Exercise0.002,342016,917Nov 19 08:57 AM
EPCIASENZA MARISAChief Legal Ofcr & SecretaryNov 15Option Exercise0.001,17108,403Nov 19 08:56 AM
EPCHutchison Colin AChief Operating OfficerNov 15Option Exercise0.002,342027,786Nov 19 08:54 AM
EPCHILL JOHN NChief Human Resources OfficerNov 15Option Exercise0.001,171032,136Nov 19 08:52 AM
QUREKuta Alexander Edward IIIExecutive VP, OperationsNov 15Option Exercise5.314,00021,24045,578Nov 19 08:51 AM
QUREKuta Alexander Edward IIIExecutive VP, OperationsNov 15Sale52.084,000208,31041,578Nov 19 08:51 AM
MSBITucker Douglas J.SVP Corporate CounselNov 18Option Exercise18.0040,000720,00073,577Nov 19 08:51 AM
MSBITucker Douglas J.SVP Corporate CounselNov 18Sale28.0040,0001,120,02833,577Nov 19 08:51 AM
MYEDEFEO RONALD MDirectorNov 15Buy16.2510,000162,50011,570Nov 19 08:26 AM
GLPIDemchyk MatthewSVP, InvestmentsNov 18Buy42.752,500106,87552,500Nov 19 08:12 AM
EMRBLINN MARK ADirectorNov 15Buy73.111,400102,3582,413Nov 19 08:02 AM
MOTSJacobs Gary E.DirectorNov 18Buy1.5417,00026,180771,289Nov 19 08:01 AM
ORAKrieger ZviE.V.P. Electricty SegmentNov 18Option Exercise63.3580851,187808Nov 19 07:25 AM
ORAKrieger ZviE.V.P. Electricty SegmentNov 18Sale76.5080861,8120Nov 19 07:25 AM
OPKFROST PHILLIP MD ET ALCEO & ChairmanNov 18Buy1.48100,000147,925167,784,443Nov 19 06:22 AM
VERBBond Phillip J.DirectorNov 18Buy0.931,5001,3923,000Nov 19 06:15 AM
MTDFILLIOL OLIVER APresident and CEONov 15Option Exercise133.0017,0002,261,00033,279Nov 19 06:02 AM
MTDFILLIOL OLIVER APresident and CEONov 15Sale722.7117,00012,286,02016,279Nov 19 06:02 AM
NPTNJenks Timothy StorrsCEONov 18Option Exercise3.5034,799121,797455,148Nov 18 09:56 PM
COTYHUBER EDGAR O.President of Coty LuxuryNov 05Option Exercise0.0047,9420211,512Nov 18 09:22 PM
SUMBenedict Anne LeeSee RemarksNov 15Sale23.203,01169,8698,698Nov 18 09:19 PM
ROKUHenricks Alan S.DirectorNov 18Sale160.005,000800,0005,222Nov 18 08:55 PM
ROKULouden SteveCFONov 18Sale155.9595,78914,938,7500Nov 18 08:54 PM
DSACACIA RESEARCH CORPDirectorNov 14Buy4.1091,600375,57891,600Nov 18 08:50 PM
DSACACIA RESEARCH CORPDirectorNov 15Buy4.13108,400447,334200,000Nov 18 08:50 PM
DSACACIA RESEARCH CORPDirectorNov 18Buy4.18300,0001,253,370500,000Nov 18 08:50 PM
FTVWalker Stacey A.SVP - Human ResourcesNov 15Sale71.4346833,42918,788Nov 18 08:46 PM
UBERKalanick Travis CordellDirectorNov 14Sale26.28638,39916,777,12671,024,087Nov 18 08:36 PM
UBERKalanick Travis CordellDirectorNov 15Sale26.613,670,44097,670,40867,353,647Nov 18 08:36 PM
UBERKalanick Travis CordellDirectorNov 18Sale26.772,121,29056,786,93365,232,357Nov 18 08:36 PM
FBSandberg SherylChief Operating OfficerNov 15Option Exercise0.0098,85401,461,537Nov 18 08:34 PM
GLUULeichtner ScottVP and General CounselNov 15Option Exercise0.006,8750205,187Nov 18 08:33 PM
GLUUEarl NicholasPresident & CEONov 15Option Exercise0.0031,2500487,529Nov 18 08:33 PM
GLUULudwig Eric REVP, COO and CFONov 15Option Exercise0.0020,938077,938Nov 18 08:32 PM
GLUULudwig Eric REVP, COO and CFONov 15Sale5.7520,000115,000358,052Nov 18 08:32 PM
BYNDStone Christopher IsaacDirectorNov 14Sale82.0010,000820,000346,390Nov 18 08:32 PM
GLUUAkhavan ChrisChief Revenue OfficerNov 15Option Exercise0.006,875023,939Nov 18 08:32 PM
COTYZafar AyeshaSVP Group ControllerNov 05Option Exercise0.007,191028,761Nov 18 08:13 PM
PTMNLACOVARA CHRISTOPHERDirectorNov 14Sale2.19122,066267,240460,568Nov 18 08:13 PM
PTMNLACOVARA CHRISTOPHERDirectorNov 15Sale2.09168,231351,590292,337Nov 18 08:13 PM
COTYHanrot SophieChief Human Resources OfficerNov 05Option Exercise0.004,075017,552Nov 18 08:09 PM
COTYMoreau SylviePresident, Professional BeautyNov 05Option Exercise0.0023,9710121,006Nov 18 07:59 PM
WATTSereda Brian JSenior Vice President & CFONov 15Sale2.103,3367,006156,050Nov 18 07:56 PM
WATTSahejpal NeerajSenior VP, Product MarketingNov 15Sale2.102,6695,605148,940Nov 18 07:54 PM
WATTJohnston CesarCOO & EVP, EngineeringNov 15Sale2.106,37513,388293,533Nov 18 07:53 PM
WATTGaulding JohnDirectorNov 14Sale2.1813,35029,10368,318Nov 18 07:52 PM
WATTGaulding JohnDirectorNov 15Sale2.1511,50024,74056,818Nov 18 07:52 PM
STIMFarley Brian EDirectorNov 14Buy4.6019,00087,400136,606Nov 18 07:45 PM
STIMFarley Brian EDirectorNov 18Buy4.2711,00046,970147,606Nov 18 07:45 PM
VIAVCOLVIN DONALD ADirectorNov 15Option Exercise0.0017,7430103,910Nov 18 07:43 PM
VIAVBraham TorDirectorNov 15Option Exercise0.0017,7430103,910Nov 18 07:43 PM
VIAVJABBAR MASOODDirectorNov 15Option Exercise0.0017,7430215,719Nov 18 07:42 PM
RDNTCRUES JOHN VMedical DirectorNov 18Sale18.0120,000360,200414,097Nov 18 07:39 PM
RNGSipes DavidChief Operating OfficerNov 18Option Exercise15.775,50086,735234,217Nov 18 07:38 PM
RNGSipes DavidChief Operating OfficerNov 18Sale169.6814,6132,479,599219,604Nov 18 07:38 PM
RNGShah PrafulChief Strategy OfficerNov 14Option Exercise15.775,62588,706255,165Nov 18 07:36 PM
RNGShah PrafulChief Strategy OfficerNov 15Option Exercise15.775,62588,706254,501Nov 18 07:36 PM
RNGShah PrafulChief Strategy OfficerNov 15Sale169.706,2891,067,229248,212Nov 18 07:36 PM
RNGShah PrafulChief Strategy OfficerNov 14Sale167.506,2891,053,398248,876Nov 18 07:36 PM
MGPKnicks LauED Acct & Finance (Controller)Nov 15Option Exercise0.002930293Nov 18 07:35 PM
CRRMORRIS WILLIAM C10% OwnerNov 14Sale0.5268,68735,8132,931,433Nov 18 07:34 PM
CRRMORRIS WILLIAM C10% OwnerNov 14Sale0.5234,55618,017100,672Nov 18 07:34 PM
CRRMORRIS WILLIAM C10% OwnerNov 15Sale0.60103,19062,1312,828,243Nov 18 07:34 PM
CRRMORRIS WILLIAM C10% OwnerNov 15Sale0.6051,57531,02849,097Nov 18 07:34 PM
URGNBarrett Elizabeth A.Chief Executive OfficerNov 15Buy26.001,54840,2481,548Nov 18 07:32 PM
MGMSANDERS COREY IANCHIEF FINANCIAL OFFICERNov 14Option Exercise0.007,8690381,141Nov 18 07:31 PM
MGMSELWOOD ROBERTEVP - CHIEF ACCOUNTING OFFICERNov 14Option Exercise0.002,7620181,660Nov 18 07:29 PM
MGMMcManus JohnEVP GENERAL COUNSEL AND SECYNov 14Option Exercise0.003,1470126,981Nov 18 07:28 PM
MGMMURREN JAMESCHAIRMAN & CEONov 14Option Exercise0.0018,8860152,430Nov 18 07:27 PM
MGMHORNBUCKLE WILLIAMPRESIDENT AND COONov 14Option Exercise0.007,869072,427Nov 18 07:25 PM
LVGOBischoff ChristopherDirectorNov 18Buy25.484,000101,9204,000Nov 18 07:22 PM
CRAIMaleh Paul APresident and CEONov 14Option Exercise0.006,6080124,593Nov 18 07:18 PM
CRAIHolmes Chad MCFO, EVP and TreasurerNov 14Option Exercise0.001,982022,642Nov 18 07:17 PM
TNDMVosseller LeighEVP & CHIEF FINANCIAL OFFICERNov 18Option Exercise2.5910,00025,90013,265Nov 18 07:12 PM
TNDMVosseller LeighEVP & CHIEF FINANCIAL OFFICERNov 18Sale65.4110,000654,1283,265Nov 18 07:12 PM
VIAVBARNES KEITHDirectorNov 15Option Exercise0.0017,7430116,214Nov 18 07:11 PM
VIAVBlack Laura A.DirectorNov 15Option Exercise0.0017,743034,354Nov 18 07:11 PM
VIAVCAMPOS TIMOTHYDirectorNov 15Option Exercise0.0017,7430118,865Nov 18 07:10 PM
VIAVBELLUZZO RICHARDDirectorNov 15Option Exercise0.0017,7430208,397Nov 18 07:09 PM
CRMBenioff MarcChairman of the Board & co-CEONov 15Sale162.785,000813,90430,523,800Nov 18 07:05 PM
CRMBenioff MarcChairman of the Board & co-CEONov 18Sale162.885,000814,41730,518,800Nov 18 07:05 PM
VBTXMEHOS MANUEL JDirectorNov 15Sale25.007,400185,030434,912Nov 18 07:05 PM
ITIWilliams Mikel HDirectorSep 12Option Exercise0.009,615015,403Nov 18 07:03 PM
ITIDALY KEVINDirectorSep 12Option Exercise0.009,615020,403Nov 18 07:02 PM
ITISiegal Laura LDirectorSep 12Option Exercise0.009,615024,548Nov 18 07:02 PM
ITITHOMAS TOMDirectorSep 12Option Exercise0.009,615030,403Nov 18 07:02 PM
ITIMooney GerardDirectorSep 12Option Exercise0.009,615023,549Nov 18 07:01 PM
ITIDeeter ScottDirectorSep 12Option Exercise0.009,615022,009Nov 18 07:01 PM
TRMBBUICK ROSALIND D.Sr. Vice PresidentNov 15Option Exercise0.008,54009,568Nov 18 07:01 PM
AGRXPERCEPTIVE ADVISORS LLC10% OwnerNov 14Buy1.69435,015735,1756,586,125Nov 18 07:00 PM
AGRXPERCEPTIVE ADVISORS LLC10% OwnerNov 15Buy1.685,333,8008,940,81211,919,925Nov 18 07:00 PM
INTBAKSHI KENDirectorNov 14Sale43.1410,000431,40053,180Nov 18 07:00 PM
GDDYKelly NimaChief Legal OfficerNov 14Sale67.712,680181,475127,151Nov 18 06:58 PM
VVVO'Daniel Julie MarieCLO and Corp. SecyNov 15Option Exercise0.001,12802,949Nov 18 06:52 PM
VVVMITCHELL SAMUEL JChief Executive OfficerNov 15Option Exercise0.005,5440179,682Nov 18 06:51 PM
RMDHollingshead JamesPresident, Sleep BusinessNov 15Option Exercise58.2421,7551,267,011102,387Nov 18 06:50 PM
RMDHollingshead JamesPresident, Sleep BusinessNov 15Sale146.3520,0382,932,56182,349Nov 18 06:50 PM
VVVMeixelsperger Mary EChief Financial OfficerNov 15Option Exercise0.003,009037,776Nov 18 06:50 PM
CPTCAMPO RICHARD JChairman and CEONov 18Option Exercise10.5125,976273,073239,924Nov 18 06:50 PM
CPTCAMPO RICHARD JChairman and CEONov 14Option Exercise10.5139,716417,514253,664Nov 18 06:50 PM
open in screener